Estación de Freire

Ultimos registro cada 15 minutos 37
Estación Fecha / Hora Temperatura Humedad Lluvia Velocidad Dirección Radiación Presion
37 Freire 06-05-2026 10:15 11,3 99 0 0,4 176 58 1009,6
36 Freire 06-05-2026 09:45 12,6 100 0,6 0 176 16 1009,6
35 Freire 06-05-2026 09:30 12,8 99 0,5 0,4 355 30 1009,6
34 Freire 06-05-2026 09:15 13 100 0,3 0 5 39 1009,6
33 Freire 06-05-2026 08:45 13 100 0,7 0 70 9 1009,6
32 Freire 06-05-2026 08:30 12,8 100 0,3 0 171 18 1009,6
31 Freire 06-05-2026 08:15 12,7 100 0,4 0 176 9 1009,6
30 Freire 06-05-2026 08:00 12,6 100 0,7 0 176 0 1009,6
29 Freire 06-05-2026 07:45 12,6 100 1 0 176 0 1009,6
28 Freire 06-05-2026 07:30 12,5 99 1,1 0 176 0 1009,6
27 Freire 06-05-2026 07:15 12,5 99 0,6 0 176 0 1009,6
26 Freire 06-05-2026 07:00 12,6 99 0,4 0 176 0 1009,6
25 Freire 06-05-2026 06:45 12,6 99 0 0 176 0 1009,6
24 Freire 06-05-2026 06:30 12,7 99 0,2 0 152 0 1009,6
23 Freire 06-05-2026 06:15 12,8 99 0 0 152 0 1009,6
22 Freire 06-05-2026 06:00 12,8 99 0 0 153 0 1009,6
21 Freire 06-05-2026 05:45 12,8 99 0 0 152 0 1009,6
20 Freire 06-05-2026 05:30 12,9 99 0 0,4 110 0 1009,6
19 Freire 06-05-2026 05:15 12,9 100 0 0,4 264 0 1009,6
18 Freire 06-05-2026 05:00 12,8 99 0 0,4 81 0 1009,6
17 Freire 06-05-2026 04:45 12,8 100 0 0,4 156 0 1009,6
16 Freire 06-05-2026 04:30 12,9 100 0 0,9 48 0 1009,6
15 Freire 06-05-2026 04:15 12,9 100 0 0 112 0 1009,6
14 Freire 06-05-2026 03:45 12,7 100 0,5 0,4 176 0 1009,6
13 Freire 06-05-2026 03:30 12,5 99 0,2 0,9 131 0 1009,6
12 Freire 06-05-2026 03:15 12,4 99 0 0 163 0 1009,6
11 Freire 06-05-2026 02:45 12,4 99 0 0 163 0 1009,6
10 Freire 06-05-2026 02:30 12,4 99 0 0 156 0 1009,6
9 Freire 06-05-2026 02:15 12,4 99 0 0 157 0 1009,6
8 Freire 06-05-2026 02:00 12,5 99 0 0 157 0 1009,6
7 Freire 06-05-2026 01:45 12,6 99 0 0 176 0 1009,6
6 Freire 06-05-2026 01:30 12,7 99 0 0 176 0 1009,6
5 Freire 06-05-2026 01:15 12,8 99 0,1 0 176 0 1009,6
4 Freire 06-05-2026 01:00 12,9 100 0,1 0,9 176 0 1009,6
3 Freire 06-05-2026 00:45 12,9 100 0 0,9 176 0 1009,6
2 Freire 06-05-2026 00:30 13,1 99 0 0 176 0 1009,6
1 Freire 06-05-2026 00:15 13,1 99 0 0 81 0 1009,6